Weather History for Storm Lake, IA

Change the Weather History Date:

Thursday, February 9, 2012

  Actual Average Record
Temperature  
Mean Temperature 20 °F -  
Max Temperature 33 °F 30 °F 51 °F (1999)
Min Temperature 7 °F 15 °F -8 °F (2011)
Degree Days  
Heating Degree Days 45    
Moisture  
Dew Point 19 °F    
Average Humidity 85    
Maximum Humidity 98    
Minimum Humidity 66    
Precipitation  
Precipitation 0.00 in - - ()
Sea Level Pressure  
Sea Level Pressure 30.10 in    
Wind  
Wind Speed 11 mph (WSW)    
Max Wind Speed 25 mph    
Max Gust Speed 30 mph    
Visibility 10 miles    
Events      
Averages and records for this station are not official NWS values.
T = Trace of Precipitation, MM = Missing Value Source: NWS Daily Summary

Daily Weather History Graph

Daily Weather History Graph

Search for Another Location

Airport:

Trip Planner

Search our weather history database for the weather conditions in past years. The results will help you decide how hot, cold, wet, or windy it might be!

Date:

Astronomy

Feb. 09, 2012 Rise Set
Actual Time 7:26 AM CST 5:44 PM CST
Civil Twilight 6:57 AM CST 6:13 PM CST
Nautical Twilight 6:23 AM CST 6:47 PM CST
Astronomical Twilight 5:50 AM CST 7:20 PM CST
Moon 8:18 PM CST (2/9) 7:59 AM CST (2/9)
Length of Visible Light 11h 16m
Length of Day
10h 18m
Waning Gibbous, 96% of the Moon is Illuminated
Feb 9
Waning Gibbous
Feb 14
Last Quarter
Feb 21
New
Feb 29
First Quarter
Mar 8
Full

Hourly Weather History & Observations

Time (CST) Temp. Windchill Dew Point Humidity Pressure Visibility Wind Dir Wind Speed Gust Speed Precip Events Conditions
12:15 AM 10.8 °F 0.0 °F 8.6 °F 91% 30.29 in 10.0 mi West 6.9 mph - N/A   Clear
12:35 AM 10.6 °F -0.2 °F 8.6 °F 92% 30.29 in 10.0 mi West 6.9 mph - N/A   Clear
12:55 AM 10.2 °F -1.7 °F 8.4 °F 92% 30.28 in 10.0 mi West 8.1 mph - N/A   Clear
1:15 AM 9.9 °F 0.2 °F 7.9 °F 92% 30.28 in 10.0 mi WSW 5.8 mph - N/A   Clear
1:35 AM 7.9 °F -2.2 °F 6.3 °F 93% 30.27 in 10.0 mi WSW 5.8 mph - N/A   Clear
1:55 AM 8.4 °F -3.9 °F 7.0 °F 94% 30.26 in 10.0 mi WSW 8.1 mph - N/A   Clear
2:15 AM 8.6 °F -4.7 °F 7.2 °F 94% 30.25 in 10.0 mi WSW 9.2 mph - N/A   Clear
3:15 AM 12.0 °F -0.4 °F 10.4 °F 93% 30.23 in 10.0 mi WSW 9.2 mph - N/A   Scattered Clouds
3:35 AM 13.5 °F 0.5 °F 11.7 °F 93% 30.22 in 10.0 mi WSW 10.4 mph - N/A   Overcast
3:55 AM 14.4 °F 1.6 °F 12.0 °F 90% 30.21 in 10.0 mi WSW 10.4 mph - N/A   Overcast
4:15 AM 12.9 °F -0.2 °F 10.8 °F 91% 30.20 in 10.0 mi WSW 10.4 mph - N/A   Mostly Cloudy
4:35 AM 13.5 °F 0.5 °F 11.3 °F 91% 30.20 in 10.0 mi WSW 10.4 mph - N/A   Mostly Cloudy
4:55 AM 14.5 °F 1.9 °F 12.6 °F 92% 30.20 in 10.0 mi WSW 10.4 mph - N/A   Overcast
5:15 AM 16.0 °F 4.4 °F 13.8 °F 91% 30.20 in 10.0 mi WSW 9.2 mph - N/A   Overcast
5:35 AM 17.6 °F 6.4 °F 14.9 °F 89% 30.19 in 10.0 mi WSW 9.2 mph - N/A   Overcast
5:55 AM 18.3 °F 6.6 °F 15.4 °F 89% 30.18 in 10.0 mi WSW 10.4 mph - N/A   Overcast
6:15 AM 18.3 °F 5.9 °F 15.6 °F 89% 30.18 in 10.0 mi WSW 11.5 mph - N/A   Overcast
6:35 AM 17.2 °F 5.2 °F 14.5 °F 89% 30.17 in 10.0 mi WSW 10.4 mph - N/A   Scattered Clouds
6:55 AM 16.2 °F 3.9 °F 13.6 °F 90% 30.17 in 10.0 mi WSW 10.4 mph - N/A   Clear
7:15 AM 15.6 °F 4.9 °F 13.1 °F 90% 30.17 in 10.0 mi WSW 8.1 mph - N/A   Clear
7:35 AM 14.0 °F 5.1 °F 12.2 °F 93% 30.17 in 10.0 mi WSW 5.8 mph - N/A   Clear
7:55 AM 15.3 °F 6.6 °F 13.5 °F 93% 30.16 in 10.0 mi SW 5.8 mph - N/A   Clear
8:15 AM 15.6 °F 8.3 °F 13.3 °F 90% 30.16 in 10.0 mi SW 4.6 mph - N/A   Clear
8:35 AM 18.1 °F 6.3 °F 16.3 °F 93% 30.16 in 10.0 mi SW 10.4 mph - N/A   Clear
8:55 AM 19.9 °F 7.9 °F 17.6 °F 91% 30.16 in 10.0 mi SW 11.5 mph - N/A   Clear
9:15 AM 22.1 °F 10.0 °F 19.6 °F 90% 30.16 in 10.0 mi WSW 12.7 mph - N/A   Clear
9:35 AM 23.7 °F 10.5 °F 20.7 °F 88% 30.15 in 10.0 mi WSW 16.1 mph 20.7 mph N/A   Clear
9:55 AM 24.4 °F 11.9 °F 21.4 °F 88% 30.14 in 10.0 mi WSW 15.0 mph - N/A   Clear
10:15 AM 25.7 °F 13.1 °F 22.5 °F 88% 30.14 in 10.0 mi WSW 16.1 mph 21.9 mph N/A   Clear
10:35 AM 27.0 °F 14.7 °F 23.2 °F 86% 30.12 in 10.0 mi WSW 16.1 mph - N/A   Clear
10:55 AM 28.2 °F 15.9 °F 23.7 °F 83% 30.12 in 10.0 mi SW 17.3 mph - N/A   Scattered Clouds
11:15 AM 28.6 °F 16.4 °F 23.4 °F 81% 30.11 in 10.0 mi WSW 17.3 mph - N/A   Mostly Cloudy
11:35 AM 30.4 °F 18.7 °F 24.1 °F 77% 30.10 in 10.0 mi WSW 17.3 mph - N/A   Mostly Cloudy
11:55 AM 31.8 °F 20.6 °F 23.2 °F 70% 30.09 in 10.0 mi SW 17.3 mph - N/A   Overcast
12:15 PM 31.3 °F 19.5 °F 22.3 °F 69% 30.08 in 10.0 mi WSW 18.4 mph 28.8 mph N/A   Mostly Cloudy
12:35 PM 32.7 °F 21.8 °F 23.5 °F 69% 30.06 in 10.0 mi WSW 17.3 mph - N/A   Scattered Clouds
12:55 PM 33.6 °F 22.6 °F 23.4 °F 66% 30.04 in 10.0 mi WSW 18.4 mph 25.3 mph N/A   Scattered Clouds
1:15 PM 32.9 °F 21.0 °F 23.7 °F 69% 30.03 in 10.0 mi SW 20.7 mph 26.5 mph N/A   Mostly Cloudy
1:35 PM 33.6 °F 21.6 °F 24.4 °F 69% 30.02 in 10.0 mi SW 21.9 mph 26.5 mph N/A   Overcast
1:55 PM 32.4 °F 20.3 °F 24.3 °F 72% 30.01 in 10.0 mi SW 20.7 mph 25.3 mph N/A   Overcast
2:15 PM 32.2 °F 18.9 °F 24.3 °F 73% 30.01 in 10.0 mi SW 25.3 mph 28.8 mph N/A   Overcast
2:35 PM 32.0 °F 19.8 °F 24.6 °F 74% 30.00 in 10.0 mi SW 20.7 mph 29.9 mph N/A   Overcast
2:55 PM 32.0 °F 20.1 °F 24.6 °F 74% 30.00 in 10.0 mi WSW 19.6 mph 28.8 mph N/A   Overcast
3:15 PM 31.1 °F 18.3 °F 24.4 °F 76% 29.99 in 10.0 mi SW 21.9 mph 28.8 mph N/A   Overcast
3:35 PM 30.7 °F 18.1 °F 24.3 °F 77% 29.99 in 10.0 mi WSW 20.7 mph - N/A   Overcast
3:55 PM 31.1 °F 18.9 °F 24.8 °F 77% 29.99 in 10.0 mi WSW 19.6 mph 24.2 mph N/A   Overcast
4:15 PM 31.1 °F 19.3 °F 25.0 °F 78% 29.99 in 10.0 mi WSW 18.4 mph - N/A   Overcast
4:35 PM 31.1 °F 18.9 °F 24.8 °F 77% 29.98 in 10.0 mi SW 19.6 mph 25.3 mph N/A   Overcast
4:55 PM 31.3 °F 19.2 °F 25.0 °F 77% 29.98 in 10.0 mi WSW 19.6 mph 25.3 mph N/A   Overcast
5:15 PM 30.7 °F 19.6 °F 24.8 °F 79% 29.98 in 10.0 mi SW 16.1 mph 20.7 mph N/A   Scattered Clouds
5:35 PM 29.7 °F 18.2 °F 24.6 °F 81% 29.98 in 10.0 mi WSW 16.1 mph - N/A   Clear
5:55 PM 28.4 °F 17.0 °F 24.3 °F 84% 29.98 in 10.0 mi WSW 15.0 mph - N/A   Clear
6:15 PM 27.9 °F 17.3 °F 24.3 °F 86% 29.98 in 10.0 mi SW 12.7 mph - N/A   Clear
6:35 PM 27.1 °F 15.4 °F 24.1 °F 88% 29.98 in 10.0 mi SW 15.0 mph - N/A   Clear
6:55 PM 26.4 °F 15.5 °F 23.9 °F 90% 29.98 in 7.0 mi WSW 12.7 mph - N/A   Clear
7:15 PM 25.5 °F 14.3 °F 23.7 °F 93% 29.98 in 7.0 mi WSW 12.7 mph - N/A   Clear
7:35 PM 24.4 °F 13.0 °F 23.0 °F 94% 29.98 in 5.0 mi WSW 12.7 mph - N/A   Clear
7:55 PM 24.6 °F 13.8 °F 23.7 °F 96% 29.99 in 5.0 mi WSW 11.5 mph - N/A   Scattered Clouds
8:15 PM 23.9 °F 13.5 °F 23.0 °F 96% 29.98 in 5.0 mi WSW 10.4 mph - N/A   Clear
8:35 PM 23.7 °F 13.3 °F 23.0 °F 97% 29.97 in 5.0 mi WSW 10.4 mph - N/A   Clear
8:55 PM 23.4 °F 12.2 °F 22.8 °F 98% 29.98 in 4.0 mi WSW 11.5 mph - N/A   Clear
9:15 PM 23.0 °F 12.4 °F 22.6 °F 99% 29.98 in 4.0 mi WSW 10.4 mph - N/A   Clear
9:35 PM 23.4 °F 11.6 °F 23.0 °F 99% 29.98 in 4.0 mi WSW 12.7 mph - N/A   Clear
9:55 PM 23.4 °F 11.1 °F 23.0 °F 99% 29.98 in 4.0 mi WSW 13.8 mph - N/A   Clear
10:15 PM 23.0 °F 11.1 °F 22.6 °F 99% 29.99 in 4.0 mi West 12.7 mph - N/A   Clear
10:35 PM 22.3 °F 10.8 °F 21.7 °F 98% 29.99 in 4.0 mi West 11.5 mph - N/A   Clear
10:55 PM 21.6 °F 9.9 °F 21.0 °F 98% 30.00 in 4.0 mi West 11.5 mph - N/A   Clear
11:15 PM 20.8 °F 8.4 °F 20.1 °F 97% 30.01 in 4.0 mi WNW 12.7 mph - N/A   Clear
11:35 PM 22.1 °F 11.3 °F 21.2 °F 96% 30.02 in 5.0 mi NW 10.4 mph - N/A   Scattered Clouds
11:55 PM 21.7 °F 9.6 °F 19.2 °F 90% 30.02 in 10.0 mi North 12.7 mph - N/A   Clear